Overview Statistics Trail Chart Weather Telemetry Raw packets
 

This is the latest recevied weather packets stored in our database for station/object N5JXS. If no packets are shown the sender has not sent any weather packets the latest 10 day(s).

<< 62 63 64 65 66 67 68 >>
Time Temp. Humidity Pressure Rain* Wind** Luminosity Snow
1788191280 20.56° C 46% 1029.1 hPa 0 mm - 144 W/m² -
1788190976 20° C 48% 1029 hPa 0 mm - 162 W/m² -
1788190674 20° C 49% 1028.8 hPa 0 mm - 145 W/m² -
1788190370 20° C 50% 1029.1 hPa 0 mm - 121 W/m² -
1788190066 19.44° C 50% 1028.7 hPa 0 mm - 113 W/m² -
1788189762 18.89° C 50% 1028.7 hPa 0 mm - 131 W/m² -
1788189456 18.33° C 52% 1028.6 hPa 0 mm - 124 W/m² -
1788189155 17.78° C 56% 1028.8 hPa 0 mm - 123 W/m² -
1788188850 17.22° C 58% 1029 hPa 0 mm - 113 W/m² -
1788188546 17.22° C 69% 1028.7 hPa 0 mm - 110 W/m² -
1788188245 16.67° C 69% 1029 hPa 0 mm - 104 W/m² -
1788187941 16.67° C 65% 1029 hPa 0 mm - 94 W/m² -
1788187637 16.11° C 65% 1028.7 hPa 0 mm - 88 W/m² -
1788187334 16.11° C 69% 1029.1 hPa 0 mm - 85 W/m² -
1788187032 15.56° C 66% 1028.7 hPa 0 mm - 80 W/m² -
1788186728 15.56° C 66% 1028.7 hPa 0 mm - 66 W/m² -
1788186424 15.56° C 67% 1028.7 hPa 0 mm - 61 W/m² -
1788186119 15.56° C 67% 1028.8 hPa 0 mm - 62 W/m² -
1788185818 15.56° C 66% 1028.7 hPa 0 mm - 61 W/m² -
1788185513 15.56° C 62% 1028.8 hPa 0 mm - 57 W/m² -
1788185213 15° C 63% 1028.6 hPa 0 mm - 50 W/m² -
1788184908 14.44° C 63% 1028.6 hPa 0 mm - 47 W/m² -
1788184605 13.89° C 66% 1028.3 hPa 0 mm - 44 W/m² -
1788184301 13.89° C 67% 1028.5 hPa 0 mm - 40 W/m² -
1788184007 13.89° C 67% 1028.2 hPa 0 mm - 32 W/m² -

* Rain latest hour (hover to see other rain measurements)
** Current wind speed in m/s (hover to see current wind gust speed)